星链-35772(STARLINK-35772)

导读

STARLINK-35772是美国于2025年12月8日发射的星链卫星,隶属于SpaceX公司的星链星座计划。星链计划旨在构建全球卫星互联网星座,为全球偏远地区、海洋等网络覆盖薄弱区域提供高速宽带服务。该卫星进入预定轨道后,将承担星座组网任务,进一步扩展星链系统的全球覆盖范围与服务能力。

基本信息
目录编号:
66976
目录名称:
STARLINK-35772
国际标识:
2025-288T
轨道中心:
EARTH
卫星名称:
星链-35772
卫星全名:
星链-35772(STARLINK-35772)
卫星状态:
在轨 (已飞行270 天)
发射日期:
2025-12-08 UTC
国别 :
美国 (US)
星等 :
--
轨道信息
数据来源 国际轨道数据
星历时间: 2026-09-03T23:28:46+0800
1天前
查看轨道信息
半长轴: 6861.159km
偏心率: 0.0000835
轨道倾角: 43.000°
近地点辐角 257.743°
升交点赤经 98.476°
平近点角 102.333°
近地点: 482.449km
远地点: 483.595km
周期: 94.266分钟
每日圈数: 15.275893
详细信息
固有亮度:
5
最大亮度:
2.5
卫星平台:
Starlink V1.0
覆盖范围:
全球
运营商:
太空探索技术公司
运营商所在国:
美国
制造商(研发单位):
太空探索技术公司
制造商所在国:
美国
使用方式:
暂无
卫星简介
Starlink 计划是 SpaceX 推出的全球卫星互联网项目,通过发射低轨道卫星,为全球尤其是偏远地区提供高速、低延迟的互联网服务。自 2019 年起,Starlink 已部署数千颗卫星,旨在缩小全球数字鸿沟,推动互联网普及。该项目还为军事、航空等行业提供通信支持,带来广泛经济效益。
2D轨道图
3D轨道图
轨道高度分析图
轨道倾角分析图
轨道综合分析图
查看轨道综合分析图
交会数据列表
事件ID 空间交会对象 最接近时刻(TCA) 交会距离 交会风险概率(CRP) 交会风险指数(CRI) 操作
CDM_260907-013505-707706-697621
2026-09-07T
01:35:43+0000
0.868 km
远距离
2.381882E-5 中风险 0.63
CDM_260907-000105-707706-697621
2026-09-07T
00:01:33+0000
1.150 km
极远距离
9.073406E-6 低风险 0.54
CDM_260907-030905-707706-697621
2026-09-07T
03:09:52+0000
2.694 km
极远距离
9.411245E-7 极低风险 0.34
CDM_260906-125006-697606-961721
2026-09-06T
12:50:12+0000
2.965 km
极远距离
8.73357E-7 极低风险 0.34
CDM_260906-222705-707706-697621
2026-09-06T
22:27:24+0000
2.941 km
极远距离
8.408139E-7 极低风险 0.33